RH
15 18 20 16 16 17 27 29 27 29 38 36 25 40 44 35 31 37 30 27 28 28 26 25 24 26 30 42 53 59 66 73 67 65 75 70 69 68 67 60 64 68 64 60
14 18 14 12 12 14 20 24 24 25 20 19 21 39 33 31 29 35 32 27 26 26 28 30 29 29 32 45 54 62 69 71 69 63 72 71 71 62 65 61 65 67 64 66
12 11 12 11 12 14 14 18 20 20 20 18 18 34 30 27 28 32 32 30 24 25 27 33 33 35 33 47 54 61 71 71 71 67 66 73 74 75 73 72 62 67 68 64
8 8 10 12 12 12 16 12 16 20 24 28 18 21 19 28 29 33 34 32 27 24 26 33 34 37 35 44 48 60 68 72 68 73 70 75 63 66 68 64 59 61 64 63
6 7 9 12 12 10 14 11 14 17 22 20 20 25 21 21 31 34 34 33 31 26 23 28 30 36 34 40 44 57 68 72 70 73 71 68 72 65 56 63 70 70 74 67
4 3 5 9 9 10 10 12 14 21 18 27 18 18 22 23 25 27 29 32 32 28 25 26 29 34 35 37 41 55 69 77 74 72 73 78 75 72 58 64 63 60 60 63
6 5 3 5 9 9 10 12 20 27 30 27 15 15 27 21 21 23 26 29 31 32 28 25 31 34 37 37 41 51 69 75 72 70 69 74 77 76 77 71 59 62 57 58
8 8 5 4 7 11 11 11 18 30 27 21 17 19 15 16 15 15 22 23 31 31 29 25 26 33 35 35 40 48 68 74 72 70 72 75 78 71 69 67 59 58 56 56
7 8 4 4 4 8 12 15 11 15 14 17 15 14 12 12 13 14 16 21 26 32 28 26 24 28 34 34 38 43 65 69 70 68 72 76 76 77 72 73 74 66 70 68
10 11 5 4 4 6 9 11 15 14 28 31 21 21 17 19 16 13 15 23 24 23 23 28 24 28 29 30 33 38 53 65 66 65 68 70 73 75 76 80 76 71 71 67
11 12 8 6 6 8 11 12 13 11 14 22 26 20 16 21 18 15 15 19 24 24 21 22 23 24 27 27 28 33 39 58 63 65 67 71 70 72 74 72 74 72 71 73
14 15 14 8 6 5 7 11 11 16 23 15 17 15 11 15 14 17 14 17 18 19 20 20 22 25 26 28 28 32 35 49 58 64 68 68 68 70 67 72 71 72 74 74
18 20 20 14 8 6 7 9 10 10 12 22 19 14 20 22 19 23 22 19 22 21 21 21 25 26 29 29 31 30 36 40 52 64 61 62 63 65 65 65 68 73 74 71
28 19 25 18 13 8 11 9 9 9 15 16 14 14 19 21 31 24 30 28 22 38 33 31 26 34 36 37 39 40 39 37 51 57 58 62 60 61 60 65 69 69 72 71
16 24 18 14 12 9 8 8 8 10 11 13 13 12 13 25 42 33 32 54 55 60 61 66 60 37 40 45 48 45 44 41 47 61 60 64 64 64 65 68 69 71 71 69
18 27 24 26 14 10 9 6 6 7 7 9 9 11 21 39 45 64 56 58 63 66 70 72 72 75 65 52 48 50 51 52 56 65 63 67 71 71 72 72 72 74 76 75
24 26 29 33 18 14 14 8 7 6 6 6 10 13 54 51 45 55 60 60 66 68 71 77 82 83 76 69 73 70 53 54 60 66 66 70 73 73 73 72 73 76 77 82
24 29 28 28 28 41 15 8 6 6 6 5 7 48 56 61 57 56 56 63 71 73 75 79 86 86 88 83 79 81 83 63 60 62 70 69 70 72 74 75 76 81 86 83
13 20 24 29 30 30 20 42 55 55 20 12 36 53 56 59 67 86 74 74 78 80 78 78 76 86 87 87 89 84 81 88 76 74 70 71 69 71 76 80 84 86 88 89
12 20 25 25 29 36 34 50 55 40 26 39 45 46 48 48 42 92 80 77 80 80 78 81 85 84 87 86 85 85 89 87 94 98 92 76 76 77 81 90 91 92 92 95
31 24 27 26 28 25 58 52 40 58 76 90 38 44 52 74 70 76 72 74 75 74 76 77 80 91 90 94 90 95 94 94 86 89 92 92 94 94 92 92 97 97 97 97
66 66 27 28 29 32 67 56 67 95 91 83 88 73 72 74 74 76 74 76 74 78 72 72 79 85 84 91 92 96 97 91 92 91 90 86 87 94 98 96 95 93 97 98
74 78 89 67 43 70 77 90 86 90 93 70 82 77 69 72 70 67 71 70 69 65 68 69 74 81 86 90 94 94 94 94 95 88 87 84 87 83 89 92 93 91 88 92
82 86 93 70 71 69 75 78 77 77 84 77 73 73 73 79 69 68 72 72 66 67 70 68 69 74 77 76 80 79 83 83 85 82 90 83 84 84 86 86 81 86 94 94
47 82 75 77 72 71 74 83 81 74 67 70 60 63 69 71 74 68 69 71 71 69 66 65 70 74 71 66 70 66 74 75 74 70 65 77 64 71 71 82 76 76 82 84
31 52 77 90 68 68 76 81 74 62 58 59 60 57 53 57 56 59 67 68 66 63 64 69 70 68 60 58 59 63 66 72 70 60 53 57 61 59 57 66 67 97 93 100
Wind_Speed
18 16 18 20 19 21 4 14 18 16 11 15 11 18 20 20 20 20 20 18 18 18 17 18 17 15 15 15 14 9 9 11 7 6 3 3 4 3 6 7 9 7 6 5
18 21 22 22 22 22 15 15 21 6 13 12 6 4 22 23 19 23 21 20 20 19 19 17 16 16 16 16 14 12 11 11 8 6 3 3 2 4 6 7 6 7 8 5
22 22 23 24 22 23 23 18 20 16 8 8 11 16 25 21 19 21 20 18 20 20 21 18 17 17 16 17 15 13 13 11 9 8 5 4 1 4 3 3 5 5 7 6
25 23 26 23 22 23 22 15 18 7 9 10 17 12 15 19 18 25 22 21 19 21 20 20 18 17 17 17 16 15 11 13 10 7 6 7 5 7 6 7 7 6 6 5
22 27 25 27 23 25 21 23 19 11 13 12 13 10 15 21 20 24 24 25 24 19 21 22 22 18 18 18 16 15 12 13 10 7 5 5 5 5 5 5 11 8 6 7
25 26 27 27 26 22 23 23 14 12 18 11 21 14 16 18 21 23 27 27 26 24 21 22 21 19 16 18 17 17 15 13 11 9 6 7 9 4 6 8 8 8 7 4
23 28 28 27 27 25 24 21 14 13 12 13 19 18 7 4 10 18 19 26 25 17 20 21 23 21 18 19 19 18 18 14 13 11 9 9 7 6 5 11 7 7 9 8
19 22 28 28 29 25 25 23 16 18 15 16 20 17 11 19 19 17 24 24 26 24 22 21 24 21 20 18 18 19 18 16 15 14 11 9 7 5 4 6 5 6 4 10
22 30 23 28 30 25 25 23 22 26 22 15 13 20 16 13 14 13 20 22 26 30 25 24 25 23 21 18 19 19 20 18 17 15 11 10 7 7 4 6 3 4 1 7
13 24 31 25 28 30 27 18 21 16 21 14 21 10 11 14 12 14 13 20 21 19 23 20 22 23 22 20 17 18 19 18 18 17 13 11 11 9 7 4 5 6 4 6
22 20 24 25 24 26 16 21 23 18 19 16 16 13 19 14 14 13 14 19 22 21 19 20 22 23 23 22 19 19 18 19 17 15 14 13 13 12 9 7 5 7 5 3
20 17 17 22 22 22 27 24 27 17 18 16 16 15 9 15 13 9 13 13 17 20 20 17 18 23 23 22 20 20 19 20 18 15 13 14 13 13 13 11 9 6 5 4
13 9 14 18 21 25 29 25 24 25 23 18 16 15 23 6 1 6 6 11 4 1 15 19 16 17 22 21 20 20 19 18 19 16 15 15 15 14 14 13 11 8 7 8
5 15 20 18 18 16 22 25 26 23 18 16 17 22 11 18 12 2 10 6 4 14 6 5 17 12 19 18 18 16 17 17 17 17 17 15 15 14 14 12 13 11 10 11
14 16 20 26 30 27 25 19 20 21 21 20 20 21 13 14 12 11 13 17 18 18 19 19 18 13 12 14 13 13 14 15 16 16 15 15 14 13 12 12 10 12 11 11
18 13 17 24 25 24 25 26 22 24 24 23 24 22 12 14 25 18 17 14 14 15 17 17 19 20 17 6 8 10 10 12 13 15 15 13 12 12 12 11 12 10 10 10
18 13 14 19 22 20 22 23 20 17 24 25 22 12 17 18 17 15 12 10 12 14 14 15 15 13 14 15 13 13 5 8 8 11 13 13 12 13 12 11 10 10 10 8
20 18 13 16 18 20 16 18 18 20 15 21 23 18 17 15 16 13 10 9 9 11 12 12 9 11 10 11 14 13 11 4 5 6 11 13 14 13 10 9 10 8 6 8
20 18 14 15 12 16 24 8 13 16 22 2 18 21 19 18 19 12 9 9 8 9 8 8 9 9 7 6 6 9 11 10 5 5 7 7 9 10 9 9 8 5 5 5
20 17 12 15 17 19 12 19 21 22 6 17 14 13 15 15 2 6 8 8 8 7 7 8 9 8 7 7 10 8 8 7 7 8 9 3 7 9 9 5 6 3 6 6
9 15 16 17 16 13 11 12 8 6 9 26 7 9 10 11 11 14 11 10 9 7 9 8 8 5 4 4 4 12 6 6 6 5 3 4 2 1 5 7 5 5 5 3
5 7 10 15 20 21 13 10 4 4 11 10 11 13 17 16 15 13 11 9 8 7 8 8 7 7 6 6 7 12 7 7 5 4 1 1 1 2 2 3 3 2 6 6
6 6 7 14 1 7 9 10 3 4 19 7 14 12 14 13 13 13 12 9 6 8 7 5 5 5 5 7 7 7 3 3 7 2 3 2 1 2 1 5 5 5 5 4
5 7 5 10 6 5 7 5 8 12 8 14 14 13 12 13 12 13 9 9 9 9 7 6 6 6 5 5 4 3 3 5 6 6 6 3 4 3 4 4 4 4 3 2
5 15 4 10 6 5 6 6 6 6 13 11 6 8 11 11 10 9 10 8 7 7 7 6 6 6 6 6 7 8 7 8 7 3 3 2 3 5 3 4 5 4 2 0
5 3 4 2 6 5 5 1 8 5 8 10 9 8 10 9 9 8 6 2 3 4 5 5 6 6 6 5 5 4 5 8 9 7 7 5 4 2 5 6 4 11 9 5
Wind_Direction
226 234 236 240 234 253 145 307 254 191 209 252 219 152 176 184 194 174 198 183 188 179 171 168 173 167 160 151 162 170 156 144 150 186 174 161 222 49 90 110 152 165 159 199
237 227 238 244 252 249 214 246 267 209 187 232 200 98 190 179 185 174 192 185 191 182 173 169 170 165 167 158 168 159 144 152 186 191 178 185 165 182 129 139 155 141 169 172
235 237 225 246 246 254 257 220 264 192 143 235 234 205 213 179 177 173 191 198 194 188 177 169 171 169 171 161 169 165 156 165 203 189 190 123 167 108 95 146 168 173 148 182
250 241 254 220 246 248 253 230 241 154 208 252 217 243 213 169 172 173 188 194 206 192 178 167 177 173 172 162 170 165 167 170 211 220 158 184 177 164 173 201 151 145 142 191
246 244 243 252 226 246 252 263 244 275 215 246 216 232 199 180 178 176 186 189 199 198 188 171 181 179 177 167 170 163 173 173 208 204 174 188 190 214 170 126 142 156 176 199
253 257 247 248 252 229 255 258 255 263 276 262 257 219 286 180 191 185 186 185 188 196 187 175 175 175 189 170 172 164 172 179 206 210 199 200 217 241 163 153 158 165 164 203
255 250 254 255 245 243 227 245 245 214 249 246 248 245 175 158 156 183 183 175 181 185 193 179 171 174 188 182 175 168 170 181 192 198 192 225 227 226 254 151 166 184 178 183
251 241 241 244 246 241 231 229 243 236 221 227 227 244 237 181 175 187 178 172 178 191 182 195 173 172 183 190 181 170 172 178 186 190 193 210 220 238 244 174 174 207 198 182
256 266 241 229 246 229 240 227 234 255 256 267 252 212 219 200 165 175 175 167 179 184 193 186 176 174 179 192 187 175 172 180 184 195 188 197 216 236 240 197 217 279 183 135
293 256 268 254 223 242 233 242 221 240 254 248 274 233 247 153 179 194 171 164 176 184 185 186 178 174 174 182 186 181 172 183 186 191 189 191 201 214 241 285 213 232 257 144
308 297 256 263 245 221 210 234 252 254 236 254 245 259 193 160 216 189 185 173 172 178 192 185 177 174 175 177 185 183 186 180 187 193 194 193 191 204 213 221 228 233 236 177
317 317 291 258 265 251 229 219 237 246 236 248 263 263 178 167 166 85 211 164 174 178 183 189 185 171 174 177 184 185 191 180 185 188 195 193 192 198 207 207 225 205 209 209
347 299 287 272 272 269 217 217 228 237 248 225 247 247 101 0 28 123 127 122 112 200 186 177 182 173 173 179 184 187 187 182 180 180 192 192 197 196 205 204 221 209 199 220
285 269 264 275 270 284 198 216 233 239 240 239 246 255 139 147 158 272 86 67 103 38 7 149 166 172 169 177 178 184 181 180 172 181 186 197 198 198 203 205 200 217 210 211
270 277 278 281 281 290 296 221 229 250 259 250 247 242 243 130 68 112 111 56 56 50 42 33 5 149 153 163 161 169 176 182 173 180 186 198 195 198 203 200 213 199 222 210
298 293 305 296 276 277 277 279 222 224 246 256 262 266 4 101 102 87 52 57 53 50 45 36 32 29 26 88 154 161 171 178 167 174 190 189 196 196 199 202 196 219 203 216
289 292 287 277 282 276 263 265 271 231 219 242 249 262 75 62 66 83 78 53 49 46 50 42 34 23 18 22 25 8 167 161 184 172 187 187 193 207 209 197 201 204 212 210
254 258 272 270 284 278 276 256 256 271 258 218 240 100 103 105 99 77 73 66 54 50 45 53 42 23 18 14 18 360 360 246 206 210 187 194 200 199 196 200 211 209 192 215
233 244 250 254 264 281 279 13 12 16 284 317 91 110 121 122 109 75 69 73 70 59 54 56 42 34 12 21 27 14 355 10 5 194 211 207 198 198 192 199 206 207 220 226
217 226 246 252 252 237 308 359 356 327 234 22 110 131 145 170 165 112 115 106 88 82 72 57 39 32 356 339 86 23 358 36 41 29 21 264 219 221 209 151 141 184 169 265
278 213 216 234 251 256 353 11 9 333 13 318 1 102 89 85 84 128 119 107 100 87 85 77 80 64 30 305 14 71 14 338 10 21 46 45 5 75 105 132 109 122 78 65
271 342 220 238 247 246 10 101 78 347 317 312 7 82 91 100 105 102 96 95 101 102 81 71 66 57 37 10 345 68 28 332 296 314 129 200 288 247 206 171 200 181 179 177
204 220 322 322 256 75 48 59 26 235 253 24 49 51 76 91 99 98 92 87 85 85 86 96 86 67 42 29 33 48 348 335 291 250 227 165 245 254 179 186 168 201 217 214
159 15 238 258 78 68 52 65 351 2 28 51 42 52 59 64 62 77 76 66 62 51 61 76 82 83 66 80 94 61 356 288 249 223 245 138 136 217 203 183 160 123 119 174
240 163 228 286 130 121 72 24 354 22 80 104 101 99 89 82 75 79 80 67 68 50 43 76 64 57 71 73 50 30 5 344 330 348 119 120 166 208 113 82 87 113 80 190
256 209 199 285 116 105 113 318 353 82 86 121 129 113 94 97 94 100 72 61 59 89 92 29 63 64 42 24 31 41 360 347 352 10 13 21 328 201 122 135 115 38 48 20